Year,Month,Day,Hour,Minute,Value (Times are PST for temperature in C)
2015,06,21,00,00,12.70
2015,06,21,00,01,12.70
2015,06,21,00,02,12.60
2015,06,21,00,03,12.60
2015,06,21,00,04,12.60
2015,06,21,00,05,12.60
2015,06,21,00,06,12.50
2015,06,21,00,07,12.50
2015,06,21,00,08,12.50
2015,06,21,00,09,12.40
2015,06,21,00,10,12.40
2015,06,21,00,11,12.40
2015,06,21,00,12,12.40
2015,06,21,00,13,12.40
2015,06,21,00,14,12.40
2015,06,21,00,15,12.40
2015,06,21,00,16,12.30
2015,06,21,00,17,12.30
2015,06,21,00,18,12.30
2015,06,21,00,19,12.30
2015,06,21,00,20,12.30
2015,06,21,00,21,12.20
2015,06,21,00,22,12.20
2015,06,21,00,23,12.20
2015,06,21,00,24,12.20
2015,06,21,00,25,12.10
2015,06,21,00,26,12.10
2015,06,21,00,27,12.10
2015,06,21,00,28,12.10
2015,06,21,00,29,12.10
2015,06,21,00,30,12.10
2015,06,21,00,31,12.00
2015,06,21,00,32,12.00
2015,06,21,00,33,12.00
2015,06,21,00,34,12.00
2015,06,21,00,35,11.90
2015,06,21,00,36,11.90
2015,06,21,00,37,11.90
2015,06,21,00,38,11.80
2015,06,21,00,39,11.80
2015,06,21,00,40,11.80
2015,06,21,00,41,11.80
2015,06,21,00,42,11.80
2015,06,21,00,43,11.70
2015,06,21,00,44,11.70
2015,06,21,00,45,11.70
2015,06,21,00,46,11.70
2015,06,21,00,47,11.70
2015,06,21,00,48,11.70
2015,06,21,00,49,11.70
2015,06,21,00,50,11.60
2015,06,21,00,51,11.60
2015,06,21,00,52,11.60
2015,06,21,00,53,11.60
2015,06,21,00,54,11.50
2015,06,21,00,55,11.50
2015,06,21,00,56,11.50
2015,06,21,00,57,11.50
2015,06,21,00,58,11.50
2015,06,21,00,59,11.40
2015,06,21,01,00,11.40
2015,06,21,01,01,11.40
2015,06,21,01,02,11.40
2015,06,21,01,03,11.40
2015,06,21,01,04,11.30
2015,06,21,01,05,11.40
2015,06,21,01,06,11.40
2015,06,21,01,07,11.40
2015,06,21,01,08,11.40
2015,06,21,01,09,11.40
2015,06,21,01,10,11.40
2015,06,21,01,11,11.40
2015,06,21,01,12,11.40
2015,06,21,01,13,11.40
2015,06,21,01,14,11.40
2015,06,21,01,15,11.50
2015,06,21,01,16,11.50
2015,06,21,01,17,11.50
2015,06,21,01,18,11.50
2015,06,21,01,19,11.60
2015,06,21,01,20,11.70
2015,06,21,01,21,11.70
2015,06,21,01,22,11.70
2015,06,21,01,23,11.70
2015,06,21,01,24,11.70
2015,06,21,01,25,11.70
2015,06,21,01,26,11.70
2015,06,21,01,27,11.70
2015,06,21,01,28,11.70
2015,06,21,01,29,11.70
2015,06,21,01,30,11.70
2015,06,21,01,31,11.60
2015,06,21,01,32,11.60
2015,06,21,01,33,11.60
2015,06,21,01,34,11.60
2015,06,21,01,35,11.60
2015,06,21,01,36,11.60
2015,06,21,01,37,11.60
2015,06,21,01,38,11.60
2015,06,21,01,39,11.60
2015,06,21,01,40,11.60
2015,06,21,01,41,11.50
2015,06,21,01,42,11.50
2015,06,21,01,43,11.50
2015,06,21,01,44,11.50
2015,06,21,01,45,11.50
2015,06,21,01,46,11.50
2015,06,21,01,47,11.50
2015,06,21,01,48,11.50
2015,06,21,01,49,11.50
2015,06,21,01,50,11.50
2015,06,21,01,51,11.50
2015,06,21,01,52,11.50
2015,06,21,01,53,11.50
2015,06,21,01,54,11.40
2015,06,21,01,55,11.40
2015,06,21,01,56,11.40
2015,06,21,01,57,11.40
2015,06,21,01,58,11.40
2015,06,21,01,59,11.40
2015,06,21,02,00,11.40
2015,06,21,02,01,11.30
2015,06,21,02,02,11.30
2015,06,21,02,03,11.30
2015,06,21,02,04,11.30
2015,06,21,02,05,11.20
2015,06,21,02,06,11.10
2015,06,21,02,07,11.10
2015,06,21,02,08,11.10
2015,06,21,02,09,11.10
2015,06,21,02,10,11.10
2015,06,21,02,11,11.10
2015,06,21,02,12,11.00
2015,06,21,02,13,11.00
2015,06,21,02,14,11.00
2015,06,21,02,15,11.00
2015,06,21,02,16,11.00
2015,06,21,02,17,11.00
2015,06,21,02,18,11.00
2015,06,21,02,19,11.00
2015,06,21,02,20,10.90
2015,06,21,02,21,10.90
2015,06,21,02,22,10.90
2015,06,21,02,23,10.90
2015,06,21,02,24,10.90
2015,06,21,02,25,10.90
2015,06,21,02,26,10.90
2015,06,21,02,27,11.00
2015,06,21,02,28,11.00
2015,06,21,02,29,11.00
2015,06,21,02,30,11.10
2015,06,21,02,31,11.10
2015,06,21,02,32,11.10
2015,06,21,02,33,11.10
2015,06,21,02,34,11.10
2015,06,21,02,35,11.10
2015,06,21,02,36,11.10
2015,06,21,02,37,11.10
2015,06,21,02,38,11.10
2015,06,21,02,39,11.10
2015,06,21,02,40,11.10
2015,06,21,02,41,11.10
2015,06,21,02,42,11.10
2015,06,21,02,43,11.10
2015,06,21,02,44,11.10
2015,06,21,02,45,11.10
2015,06,21,02,46,11.20
2015,06,21,02,47,11.20
2015,06,21,02,48,11.20
2015,06,21,02,49,11.20
2015,06,21,02,50,11.10
2015,06,21,02,51,11.10
2015,06,21,02,52,11.10
2015,06,21,02,53,11.10
2015,06,21,02,54,11.20
2015,06,21,02,55,11.20
2015,06,21,02,56,11.20
2015,06,21,02,57,11.20
2015,06,21,02,58,11.30
2015,06,21,02,59,11.30
2015,06,21,03,00,11.30
2015,06,21,03,01,11.30
2015,06,21,03,02,11.30
2015,06,21,03,03,11.30
2015,06,21,04,02,10.40
2015,06,21,04,03,10.40
2015,06,21,04,04,10.40
2015,06,21,04,05,10.40
2015,06,21,04,06,10.40
2015,06,21,04,07,10.40
2015,06,21,04,08,10.40
2015,06,21,04,09,10.50
2015,06,21,04,10,10.50
2015,06,21,04,11,10.50
2015,06,21,04,12,10.50
2015,06,21,04,13,10.50
2015,06,21,04,14,10.50
2015,06,21,04,15,10.50
2015,06,21,04,16,10.60
2015,06,21,04,17,10.60
2015,06,21,04,18,10.60
2015,06,21,04,19,10.70
2015,06,21,04,20,10.70
2015,06,21,04,21,10.70
2015,06,21,04,22,10.70
2015,06,21,04,23,10.70
2015,06,21,04,24,10.70
2015,06,21,04,25,10.70
2015,06,21,04,26,10.60
2015,06,21,04,27,10.60
2015,06,21,04,28,10.60
2015,06,21,04,29,10.60
2015,06,21,04,30,10.60
2015,06,21,04,31,10.50
2015,06,21,04,32,10.50
2015,06,21,04,33,10.50
2015,06,21,04,34,10.40
2015,06,21,04,35,10.40
2015,06,21,04,36,10.40
2015,06,21,04,37,10.30
2015,06,21,04,38,10.30
2015,06,21,04,39,10.30
2015,06,21,04,40,10.30
2015,06,21,04,41,10.30
2015,06,21,04,42,10.20
2015,06,21,04,43,10.20
2015,06,21,04,44,10.20
2015,06,21,04,45,10.20
2015,06,21,04,46,10.20
2015,06,21,04,47,10.20
2015,06,21,04,48,10.20
2015,06,21,04,49,10.20
2015,06,21,04,50,10.20
2015,06,21,04,51,10.10
2015,06,21,04,52,10.10
2015,06,21,04,53,10.10
2015,06,21,04,54,10.10
2015,06,21,04,55,10.10
2015,06,21,04,56,10.10
2015,06,21,04,57,10.10
2015,06,21,04,58,10.10
2015,06,21,04,59,10.10
2015,06,21,05,00,10.10
2015,06,21,05,01,10.00
2015,06,21,05,02,10.00
2015,06,21,05,03,10.00
2015,06,21,05,04,9.90
2015,06,21,05,05,9.90
2015,06,21,05,06,9.90
2015,06,21,05,07,9.90
2015,06,21,05,08,9.90
2015,06,21,05,09,9.90
2015,06,21,05,10,9.80
2015,06,21,05,11,9.80
2015,06,21,05,12,9.80
2015,06,21,05,13,9.80
2015,06,21,05,14,9.80
2015,06,21,05,15,9.80
2015,06,21,05,16,9.80
2015,06,21,05,17,9.80
2015,06,21,05,18,9.80
2015,06,21,05,19,9.80
2015,06,21,05,20,9.80
2015,06,21,05,21,9.70
2015,06,21,05,22,9.70
2015,06,21,05,23,9.70
2015,06,21,05,24,9.70
2015,06,21,05,25,9.70
2015,06,21,05,26,9.70
2015,06,21,05,27,9.70
2015,06,21,05,28,9.70
2015,06,21,05,29,9.70
2015,06,21,05,30,9.70
2015,06,21,05,31,9.70
2015,06,21,05,32,9.70
2015,06,21,05,33,9.70
2015,06,21,05,34,9.70
2015,06,21,05,35,9.70
2015,06,21,05,36,9.70
2015,06,21,05,37,9.70
2015,06,21,05,38,9.70
2015,06,21,05,39,9.70
2015,06,21,05,40,9.70
2015,06,21,05,41,9.70
2015,06,21,05,42,9.70
2015,06,21,05,43,9.70
2015,06,21,05,44,9.80
2015,06,21,05,45,9.80
2015,06,21,05,46,9.80
2015,06,21,05,47,9.80
2015,06,21,05,48,9.80
2015,06,21,05,49,9.80
2015,06,21,05,50,9.80
2015,06,21,05,51,9.80
2015,06,21,05,52,9.80
2015,06,21,05,53,9.80
2015,06,21,05,54,9.80
2015,06,21,05,55,9.80
2015,06,21,05,56,9.80
2015,06,21,05,57,9.80
2015,06,21,05,58,9.80
2015,06,21,05,59,9.90
2015,06,21,06,00,9.90
2015,06,21,06,01,9.90
2015,06,21,06,02,9.90
2015,06,21,06,03,9.90
2015,06,21,06,04,9.90
2015,06,21,06,05,9.90
2015,06,21,06,06,9.90
2015,06,21,06,07,9.90
2015,06,21,06,08,9.90
2015,06,21,06,09,9.90
2015,06,21,06,10,9.90
2015,06,21,06,11,10.00
2015,06,21,06,12,10.00
2015,06,21,06,13,10.00
2015,06,21,06,14,10.00
2015,06,21,06,15,10.10
2015,06,21,06,16,10.10
2015,06,21,06,17,10.10
2015,06,21,06,18,10.20
2015,06,21,06,19,10.20
2015,06,21,06,20,10.20
2015,06,21,06,21,10.30
2015,06,21,06,22,10.30
2015,06,21,06,23,10.30
2015,06,21,06,24,10.30
2015,06,21,06,25,10.30
2015,06,21,06,26,10.30
2015,06,21,06,27,10.40
2015,06,21,06,28,10.40
2015,06,21,06,29,10.40
2015,06,21,06,30,10.50
2015,06,21,06,31,10.60
2015,06,21,06,32,10.60
2015,06,21,06,33,10.70
2015,06,21,06,34,10.70
2015,06,21,06,35,10.80
2015,06,21,06,36,10.90
2015,06,21,06,37,10.90
2015,06,21,06,38,11.00
2015,06,21,06,39,11.00
2015,06,21,06,40,11.10
2015,06,21,06,41,11.10
2015,06,21,06,42,11.10
2015,06,21,06,43,11.10
2015,06,21,06,44,11.20
2015,06,21,06,45,11.20
2015,06,21,06,46,11.20
2015,06,21,06,47,11.20
2015,06,21,06,48,11.20
2015,06,21,06,49,11.20
2015,06,21,06,50,11.30
2015,06,21,06,51,11.30
2015,06,21,06,52,11.30
2015,06,21,06,53,11.40
2015,06,21,06,54,11.50
2015,06,21,06,55,11.60
2015,06,21,06,56,11.60
2015,06,21,06,57,11.60
2015,06,21,06,58,11.70
2015,06,21,06,59,11.70
2015,06,21,07,00,11.70
2015,06,21,07,01,11.80
2015,06,21,07,02,11.80
2015,06,21,07,03,11.80
2015,06,21,07,04,11.90
2015,06,21,07,05,12.00
2015,06,21,07,06,12.00
2015,06,21,07,07,12.10
2015,06,21,07,08,12.20
2015,06,21,07,09,12.20
2015,06,21,07,10,12.30
2015,06,21,07,11,12.30
2015,06,21,07,12,12.40
2015,06,21,07,13,12.50
2015,06,21,07,14,12.50
2015,06,21,07,15,12.60
2015,06,21,07,16,12.60
2015,06,21,07,17,12.70
2015,06,21,07,18,12.70
2015,06,21,07,19,12.80
2015,06,21,07,20,12.80
2015,06,21,07,21,12.80
2015,06,21,07,22,12.80
2015,06,21,07,23,12.80
2015,06,21,07,24,12.90
2015,06,21,07,25,12.90
2015,06,21,07,26,12.90
2015,06,21,07,27,13.00
2015,06,21,07,28,13.00
2015,06,21,07,29,13.10
2015,06,21,07,30,13.10
2015,06,21,07,31,13.10
2015,06,21,07,32,13.20
2015,06,21,07,33,13.20
2015,06,21,07,34,13.20
2015,06,21,07,35,13.30
2015,06,21,07,36,13.30
2015,06,21,07,37,13.40
2015,06,21,07,38,13.40
2015,06,21,07,39,13.50
2015,06,21,07,40,13.60
2015,06,21,07,41,13.70
2015,06,21,07,42,13.70
2015,06,21,07,43,13.80
2015,06,21,07,44,13.90
2015,06,21,07,45,13.90
2015,06,21,07,46,14.00
2015,06,21,07,47,14.00
2015,06,21,07,48,14.10
2015,06,21,07,49,14.10
2015,06,21,07,50,14.20
2015,06,21,07,51,14.20
2015,06,21,07,52,14.20
2015,06,21,07,53,14.20
2015,06,21,07,54,14.30
2015,06,21,07,55,14.30
2015,06,21,07,56,14.30
2015,06,21,07,57,14.30
2015,06,21,07,58,14.30
2015,06,21,07,59,14.30
2015,06,21,08,00,14.40
2015,06,21,08,01,14.40
2015,06,21,08,02,14.50
2015,06,21,08,03,14.60
2015,06,21,08,04,14.70
2015,06,21,08,05,14.70
2015,06,21,08,06,14.80
2015,06,21,08,07,14.90
2015,06,21,08,08,15.00
2015,06,21,08,09,15.00
2015,06,21,08,10,15.10
2015,06,21,08,11,15.10
2015,06,21,08,12,15.10
2015,06,21,08,13,15.10
2015,06,21,08,14,15.10
2015,06,21,08,15,15.20
2015,06,21,08,16,15.20
2015,06,21,08,17,15.20
2015,06,21,08,18,15.20
2015,06,21,08,19,15.20
2015,06,21,08,20,15.20
2015,06,21,08,21,15.30
2015,06,21,08,22,15.30
2015,06,21,08,23,15.30
2015,06,21,08,24,15.40
2015,06,21,08,25,15.50
2015,06,21,08,26,15.60
2015,06,21,08,27,15.60
2015,06,21,08,28,15.60
2015,06,21,08,29,15.60
2015,06,21,08,30,15.70
2015,06,21,08,31,15.70
2015,06,21,08,32,15.70
2015,06,21,08,33,15.70
2015,06,21,08,34,15.60
2015,06,21,08,35,15.60
2015,06,21,08,36,15.60
2015,06,21,08,37,15.60
2015,06,21,08,38,15.60
2015,06,21,08,39,15.70
2015,06,21,08,40,15.80
2015,06,21,08,41,15.70
2015,06,21,08,42,15.70
2015,06,21,08,43,15.70
2015,06,21,08,44,15.80
2015,06,21,08,45,15.80
2015,06,21,08,46,15.80
2015,06,21,08,47,15.80
2015,06,21,08,48,15.80
2015,06,21,08,49,15.80
2015,06,21,08,50,15.80
2015,06,21,08,51,15.80
2015,06,21,08,52,15.80
2015,06,21,08,53,15.80
2015,06,21,08,54,15.90
2015,06,21,08,55,15.90
2015,06,21,08,56,16.10
2015,06,21,08,57,16.10
2015,06,21,08,58,16.20
2015,06,21,08,59,16.30
2015,06,21,09,00,16.40
2015,06,21,09,01,16.50
2015,06,21,09,02,16.50
2015,06,21,09,03,16.50
2015,06,21,09,04,16.50
2015,06,21,09,05,16.50
2015,06,21,09,06,16.50
2015,06,21,09,07,16.60
2015,06,21,09,08,16.60
2015,06,21,09,09,16.60
2015,06,21,09,10,16.70
2015,06,21,09,11,16.70
2015,06,21,09,12,16.70
2015,06,21,09,13,16.80
2015,06,21,09,14,16.80
2015,06,21,09,15,16.90
2015,06,21,09,16,17.00
2015,06,21,09,17,17.10
2015,06,21,09,18,17.10
2015,06,21,09,19,17.20
2015,06,21,09,20,17.30
2015,06,21,09,21,17.30
2015,06,21,09,22,17.40
2015,06,21,09,23,17.50
2015,06,21,09,24,17.50
2015,06,21,09,25,17.50
2015,06,21,09,26,17.50
2015,06,21,09,27,17.60
2015,06,21,09,28,17.70
2015,06,21,09,29,17.80
2015,06,21,09,30,17.80
2015,06,21,09,31,17.80
2015,06,21,09,32,17.80
2015,06,21,09,33,17.80
2015,06,21,09,34,17.80
2015,06,21,09,35,17.90
2015,06,21,09,36,18.00
2015,06,21,09,37,18.00
2015,06,21,09,38,18.10
2015,06,21,09,39,18.10
2015,06,21,09,40,18.10
2015,06,21,09,41,18.20
2015,06,21,09,42,18.30
2015,06,21,09,43,18.30
2015,06,21,09,44,18.30
2015,06,21,09,45,18.30
2015,06,21,09,46,18.40
2015,06,21,09,47,18.50
2015,06,21,09,48,18.60
2015,06,21,09,49,18.60
2015,06,21,09,50,18.60
2015,06,21,09,51,18.60
2015,06,21,09,52,18.70
2015,06,21,09,53,18.70
2015,06,21,09,54,18.70
2015,06,21,09,55,18.70
2015,06,21,09,56,18.70
2015,06,21,09,57,18.80
2015,06,21,09,58,18.80
2015,06,21,09,59,18.80
2015,06,21,10,00,18.90
2015,06,21,10,01,18.90
2015,06,21,10,02,19.00
2015,06,21,10,03,19.00
2015,06,21,10,04,19.10
2015,06,21,10,05,19.10
2015,06,21,10,06,19.10
2015,06,21,10,07,19.10
2015,06,21,10,08,19.00
2015,06,21,10,09,19.00
2015,06,21,10,10,19.00
2015,06,21,10,11,19.00
2015,06,21,10,12,19.00
2015,06,21,10,13,18.90
2015,06,21,10,14,18.90
2015,06,21,10,15,18.90
2015,06,21,10,16,18.90
2015,06,21,10,17,19.00
2015,06,21,10,18,19.00
2015,06,21,10,19,19.10
2015,06,21,10,20,19.10
2015,06,21,10,21,19.10
2015,06,21,10,22,19.10
2015,06,21,10,23,19.10
2015,06,21,10,24,19.20
2015,06,21,10,25,19.20
2015,06,21,10,26,19.20
2015,06,21,10,27,19.30
2015,06,21,10,28,19.40
2015,06,21,10,29,19.40
2015,06,21,10,30,19.30
2015,06,21,10,31,19.30
2015,06,21,10,32,19.30
2015,06,21,10,33,19.30
2015,06,21,10,34,19.40
2015,06,21,10,35,19.40
2015,06,21,10,36,19.50
2015,06,21,10,37,19.60
2015,06,21,10,38,19.60
2015,06,21,10,39,19.60
2015,06,21,10,40,19.60
2015,06,21,10,41,19.70
2015,06,21,10,42,19.70
2015,06,21,10,43,19.70
2015,06,21,10,44,19.60
2015,06,21,10,45,19.60
2015,06,21,10,46,19.60
2015,06,21,10,47,19.60
2015,06,21,10,48,19.60
2015,06,21,10,49,19.50
2015,06,21,10,50,19.50
2015,06,21,10,51,19.50
2015,06,21,10,52,19.50
2015,06,21,10,53,19.50
2015,06,21,10,54,19.50
2015,06,21,10,55,19.60
2015,06,21,10,56,19.60
2015,06,21,10,57,19.70
2015,06,21,10,58,19.70
2015,06,21,10,59,19.70
2015,06,21,11,00,19.70
2015,06,21,11,01,19.60
2015,06,21,11,02,19.70
2015,06,21,11,03,19.70
2015,06,21,11,04,19.60
2015,06,21,11,05,19.60
2015,06,21,11,06,19.70
2015,06,21,11,07,19.70
2015,06,21,11,08,19.80
2015,06,21,11,09,19.90
2015,06,21,11,10,20.00
2015,06,21,11,11,20.10
2015,06,21,11,12,20.20
2015,06,21,11,13,20.30
2015,06,21,11,14,20.40
2015,06,21,11,15,20.40
2015,06,21,11,16,20.50
2015,06,21,11,17,20.50
2015,06,21,11,18,20.50
2015,06,21,11,19,20.60
2015,06,21,11,20,20.60
2015,06,21,11,21,20.60
2015,06,21,11,22,20.60
2015,06,21,11,23,20.60
2015,06,21,11,24,20.50
2015,06,21,11,25,20.40
2015,06,21,11,26,20.40
2015,06,21,11,27,20.30
2015,06,21,11,28,20.30
2015,06,21,11,29,20.30
2015,06,21,11,30,20.20
2015,06,21,11,31,20.20
2015,06,21,11,32,20.20
2015,06,21,11,33,20.20
2015,06,21,11,34,20.20
2015,06,21,11,35,20.30
2015,06,21,11,36,20.40
2015,06,21,11,37,20.50
2015,06,21,11,38,20.70
2015,06,21,11,39,20.80
2015,06,21,11,40,20.90
2015,06,21,11,41,21.10
2015,06,21,11,42,21.10
2015,06,21,11,43,21.20
2015,06,21,11,44,21.20
2015,06,21,11,45,21.20
2015,06,21,11,46,21.10
2015,06,21,11,47,21.00
2015,06,21,11,48,20.80
2015,06,21,11,49,20.80
2015,06,21,11,50,20.80
2015,06,21,11,51,20.80
2015,06,21,11,52,20.80
2015,06,21,11,53,20.90
2015,06,21,11,54,20.90
2015,06,21,11,55,20.90
2015,06,21,11,56,20.90
2015,06,21,11,57,20.80
2015,06,21,11,58,20.80
2015,06,21,11,59,20.80
2015,06,21,12,00,20.70
2015,06,21,12,01,20.70
2015,06,21,12,02,20.70
2015,06,21,12,03,20.60
2015,06,21,12,04,20.60
2015,06,21,12,05,20.60
2015,06,21,12,06,20.50
2015,06,21,12,07,20.50
2015,06,21,12,08,20.50
2015,06,21,12,09,20.50
2015,06,21,12,10,20.50
2015,06,21,12,11,20.60
2015,06,21,12,12,20.60
2015,06,21,12,13,20.60
2015,06,21,12,14,20.60
2015,06,21,12,15,20.70
2015,06,21,12,16,20.70
2015,06,21,12,17,20.80
2015,06,21,12,18,20.80
2015,06,21,12,19,20.90
2015,06,21,12,20,20.90
2015,06,21,12,21,20.90
2015,06,21,12,22,20.90
2015,06,21,12,23,20.80
2015,06,21,12,24,20.80
2015,06,21,12,25,20.80
2015,06,21,12,26,20.80
2015,06,21,12,27,20.80
2015,06,21,12,28,20.90
2015,06,21,12,29,20.90
2015,06,21,12,30,20.80
2015,06,21,12,31,20.90
2015,06,21,12,32,20.90
2015,06,21,12,33,20.90
2015,06,21,12,34,20.90
2015,06,21,12,35,20.90
2015,06,21,12,36,21.00
2015,06,21,12,37,21.00
2015,06,21,12,38,21.10
2015,06,21,12,39,21.10
2015,06,21,12,40,21.10
2015,06,21,12,41,21.10
2015,06,21,12,42,21.10
2015,06,21,12,43,21.00
2015,06,21,12,44,21.00
2015,06,21,12,45,20.90
2015,06,21,12,46,20.90
2015,06,21,12,47,20.90
2015,06,21,12,48,20.90
2015,06,21,12,49,20.90
2015,06,21,12,50,21.00
2015,06,21,12,51,21.10
2015,06,21,12,52,21.20
2015,06,21,12,53,21.30
2015,06,21,12,54,21.30
2015,06,21,12,55,21.40
2015,06,21,12,56,21.50
2015,06,21,12,57,21.60
2015,06,21,12,58,21.60
2015,06,21,12,59,21.70
2015,06,21,13,00,21.80
2015,06,21,13,01,21.80
2015,06,21,13,02,21.90
2015,06,21,13,03,21.80
2015,06,21,13,04,21.80
2015,06,21,13,05,21.80
2015,06,21,13,06,21.80
2015,06,21,13,07,21.80
2015,06,21,13,08,21.80
2015,06,21,13,09,21.80
2015,06,21,13,10,21.80
2015,06,21,13,11,21.90
2015,06,21,13,12,21.90
2015,06,21,13,13,22.00
2015,06,21,13,14,22.10
2015,06,21,13,15,22.20
2015,06,21,13,16,22.20
2015,06,21,13,17,22.20
2015,06,21,13,18,22.20
2015,06,21,13,19,22.20
2015,06,21,13,20,22.30
2015,06,21,13,21,22.40
2015,06,21,13,22,22.50
2015,06,21,13,23,22.60
2015,06,21,13,24,22.60
2015,06,21,13,25,22.60
2015,06,21,13,26,22.60
2015,06,21,13,27,22.50
2015,06,21,13,28,22.50
2015,06,21,13,29,22.50
2015,06,21,13,30,22.50
2015,06,21,13,31,22.50
2015,06,21,13,32,22.60
2015,06,21,13,33,22.60
2015,06,21,13,34,22.60
2015,06,21,13,35,22.60
2015,06,21,13,36,22.60
2015,06,21,13,37,22.50
2015,06,21,13,38,22.60
2015,06,21,13,39,22.60
2015,06,21,13,40,22.60
2015,06,21,13,41,22.80
2015,06,21,13,42,22.90
2015,06,21,13,43,22.90
2015,06,21,13,44,22.90
2015,06,21,13,45,22.90
2015,06,21,13,46,23.00
2015,06,21,13,47,23.10
2015,06,21,13,48,23.10
2015,06,21,13,49,23.20
2015,06,21,13,50,23.30
2015,06,21,13,51,23.30
2015,06,21,13,52,23.30
2015,06,21,13,53,23.30
2015,06,21,13,54,23.40
2015,06,21,13,55,23.30
2015,06,21,13,56,23.30
2015,06,21,13,57,23.30
2015,06,21,13,58,23.30
2015,06,21,13,59,23.30
2015,06,21,14,00,23.30
2015,06,21,14,01,23.40
2015,06,21,14,02,23.50
2015,06,21,14,03,23.60
2015,06,21,14,04,23.70
2015,06,21,14,05,23.80
2015,06,21,14,06,23.80
2015,06,21,14,07,23.80
2015,06,21,14,08,23.80
2015,06,21,14,09,23.90
2015,06,21,14,10,24.00
2015,06,21,14,11,24.00
2015,06,21,14,12,24.00
2015,06,21,14,13,23.90
2015,06,21,14,14,23.80
2015,06,21,14,15,23.80
2015,06,21,14,16,23.90
2015,06,21,14,17,23.90
2015,06,21,14,18,23.90
2015,06,21,14,19,23.80
2015,06,21,14,20,23.80
2015,06,21,14,21,23.80
2015,06,21,14,22,23.90
2015,06,21,14,23,24.00
2015,06,21,14,24,24.00
2015,06,21,14,25,24.00
2015,06,21,14,26,24.00
2015,06,21,14,27,24.10
2015,06,21,14,28,24.10
2015,06,21,14,29,24.10
2015,06,21,14,30,24.20
2015,06,21,14,31,24.20
2015,06,21,14,32,24.30
2015,06,21,14,33,24.30
2015,06,21,14,34,24.40
2015,06,21,14,35,24.40
2015,06,21,14,36,24.40
2015,06,21,14,37,24.40
2015,06,21,14,38,24.50
2015,06,21,14,39,24.50
2015,06,21,14,40,24.60
2015,06,21,14,41,24.70
2015,06,21,14,42,24.70
2015,06,21,14,43,24.70
2015,06,21,14,44,24.70
2015,06,21,14,45,24.80
2015,06,21,14,46,24.80
2015,06,21,14,47,24.80
2015,06,21,14,48,24.90
2015,06,21,14,49,25.00
2015,06,21,14,50,25.10
2015,06,21,14,51,25.10
2015,06,21,14,52,25.10
2015,06,21,14,53,25.00
2015,06,21,14,54,24.90
2015,06,21,14,55,24.90
2015,06,21,14,56,24.90
2015,06,21,14,57,24.80
2015,06,21,14,58,24.80
2015,06,21,14,59,24.80
2015,06,21,15,00,24.70
2015,06,21,15,01,24.70
2015,06,21,15,02,24.70
2015,06,21,15,03,24.70
2015,06,21,15,04,24.80
2015,06,21,15,05,24.80
2015,06,21,15,06,24.90
2015,06,21,15,07,25.00
2015,06,21,15,08,25.00
2015,06,21,15,09,25.00
2015,06,21,15,10,25.00
2015,06,21,15,11,25.00
2015,06,21,15,12,25.00
2015,06,21,15,13,25.00
2015,06,21,15,14,25.00
2015,06,21,15,15,25.10
2015,06,21,15,16,25.10
2015,06,21,15,17,25.20
2015,06,21,15,18,25.30
2015,06,21,15,19,25.40
2015,06,21,15,20,25.40
2015,06,21,15,21,25.40
2015,06,21,15,22,25.30
2015,06,21,15,23,25.10
2015,06,21,15,24,25.00
2015,06,21,15,25,25.00
2015,06,21,15,26,25.00
2015,06,21,15,27,25.00
2015,06,21,15,28,24.90
2015,06,21,15,29,24.90
2015,06,21,15,30,25.00
2015,06,21,15,31,25.00
2015,06,21,15,32,25.10
2015,06,21,15,33,25.10
2015,06,21,15,34,25.10
2015,06,21,15,35,25.20
2015,06,21,15,36,25.20
2015,06,21,15,37,25.20
2015,06,21,15,38,25.20
2015,06,21,15,39,25.20
2015,06,21,15,40,25.30
2015,06,21,15,41,25.30
2015,06,21,15,42,25.40
2015,06,21,15,43,25.40
2015,06,21,15,44,25.40
2015,06,21,15,45,25.40
2015,06,21,15,46,25.30
2015,06,21,15,47,25.30
2015,06,21,15,48,25.30
2015,06,21,15,49,25.30
2015,06,21,15,50,25.30
2015,06,21,15,51,25.20
2015,06,21,15,52,25.20
2015,06,21,15,53,25.20
2015,06,21,15,54,25.20
2015,06,21,15,55,25.10
2015,06,21,15,56,25.10
2015,06,21,15,57,25.20
2015,06,21,15,58,25.20
2015,06,21,15,59,25.30
2015,06,21,16,00,25.20
2015,06,21,16,01,25.20
2015,06,21,16,02,25.30
2015,06,21,16,03,25.30
2015,06,21,16,04,25.30
2015,06,21,16,05,25.40
2015,06,21,16,06,25.50
2015,06,21,16,07,25.60
2015,06,21,16,08,25.60
2015,06,21,16,09,25.70
2015,06,21,16,10,25.80
2015,06,21,16,11,25.80
2015,06,21,16,12,25.90
2015,06,21,16,13,25.90
2015,06,21,16,14,25.90
2015,06,21,16,15,25.90
2015,06,21,16,16,25.90
2015,06,21,16,17,25.90
2015,06,21,16,18,25.90
2015,06,21,16,19,25.90
2015,06,21,16,20,25.80
2015,06,21,16,21,25.80
2015,06,21,16,22,25.80
2015,06,21,16,23,25.80
2015,06,21,16,24,25.80
2015,06,21,16,25,25.80
2015,06,21,16,26,25.80
2015,06,21,16,27,25.80
2015,06,21,16,28,25.80
2015,06,21,16,29,25.80
2015,06,21,16,30,25.70
2015,06,21,16,31,25.70
2015,06,21,16,32,25.70
2015,06,21,16,33,25.70
2015,06,21,16,34,25.70
2015,06,21,16,35,25.60
2015,06,21,16,36,25.70
2015,06,21,16,37,25.60
2015,06,21,16,38,25.60
2015,06,21,16,39,25.70
2015,06,21,16,40,25.70
2015,06,21,16,41,25.80
2015,06,21,16,42,25.90
2015,06,21,16,43,26.00
2015,06,21,16,44,26.20
2015,06,21,16,45,26.30
2015,06,21,16,46,26.30
2015,06,21,16,47,26.40
2015,06,21,16,48,26.40
2015,06,21,16,49,26.40
2015,06,21,16,50,26.50
2015,06,21,16,51,26.50
2015,06,21,16,52,26.60
2015,06,21,16,53,26.60
2015,06,21,16,54,26.50
2015,06,21,16,55,26.40
2015,06,21,16,56,26.30
2015,06,21,16,57,26.30
2015,06,21,16,58,26.30
2015,06,21,16,59,26.30
2015,06,21,17,00,26.30
2015,06,21,17,01,26.20
2015,06,21,17,02,26.10
2015,06,21,17,03,26.00
2015,06,21,17,04,25.90
2015,06,21,17,05,25.80
2015,06,21,17,06,25.80
2015,06,21,17,07,25.80
2015,06,21,17,08,25.80
2015,06,21,17,09,25.90
2015,06,21,17,10,25.90
2015,06,21,17,11,26.00
2015,06,21,17,12,26.20
2015,06,21,17,13,26.30
2015,06,21,17,14,26.30
2015,06,21,17,15,26.30
2015,06,21,17,16,26.30
2015,06,21,17,17,26.40
2015,06,21,17,18,26.30
2015,06,21,17,19,26.30
2015,06,21,17,20,26.30
2015,06,21,17,21,26.30
2015,06,21,17,22,26.40
2015,06,21,17,23,26.40
2015,06,21,17,24,26.50
2015,06,21,17,25,26.50
2015,06,21,17,26,26.60
2015,06,21,17,27,26.60
2015,06,21,17,28,26.60
2015,06,21,17,29,26.70
2015,06,21,17,30,26.70
2015,06,21,17,31,26.80
2015,06,21,17,32,26.80
2015,06,21,17,33,26.80
2015,06,21,17,34,26.80
2015,06,21,17,35,26.80
2015,06,21,17,36,26.80
2015,06,21,17,37,26.80
2015,06,21,17,38,26.80
2015,06,21,17,39,26.70
2015,06,21,17,40,26.70
2015,06,21,17,41,26.60
2015,06,21,17,42,26.60
2015,06,21,17,43,26.50
2015,06,21,17,44,26.40
2015,06,21,17,45,26.40
2015,06,21,17,46,26.40
2015,06,21,17,47,26.50
2015,06,21,17,48,26.50
2015,06,21,17,49,26.50
2015,06,21,17,50,26.60
2015,06,21,17,51,26.60
2015,06,21,17,52,26.60
2015,06,21,17,53,26.50
2015,06,21,17,54,26.50
2015,06,21,17,55,26.50
2015,06,21,17,56,26.50
2015,06,21,17,57,26.50
2015,06,21,17,58,26.40
2015,06,21,17,59,26.40
2015,06,21,18,00,26.40
2015,06,21,18,01,26.50
2015,06,21,18,02,26.50
2015,06,21,18,03,26.50
2015,06,21,18,04,26.40
2015,06,21,18,05,26.40
2015,06,21,18,06,26.40
2015,06,21,18,07,26.40
2015,06,21,18,08,26.40
2015,06,21,18,09,26.40
2015,06,21,18,10,26.40
2015,06,21,18,11,26.40
2015,06,21,18,12,26.30
2015,06,21,18,13,26.30
2015,06,21,18,14,26.30
2015,06,21,18,15,26.30
2015,06,21,18,16,26.30
2015,06,21,18,17,26.30
2015,06,21,18,18,26.40
2015,06,21,18,19,26.40
2015,06,21,18,20,26.40